Location: Newark
(50.2225°N, 86.0456°E)
Time: 08:39:49
(UTC+00:00)

Envisat - Visible Passes

Search period start: 27 January 2020 00:00
Search period end: 06 February 2020 00:00
Orbit: 764 x 766 km, 98.1° (Epoch: 26 January)

Date Brightness Start Highest point End Pass type
(mag) Time Alt. Az. Time Alt. Az. Time Alt. Az.
27 Jan 5.1 12:56:38 10° SSW 13:01:00 29° W 13:05:25 10° NNW visible
27 Jan 6.4 23:23:36 10° ENE 23:24:49 11° E 23:26:03 10° E visible
28 Jan 3.4 00:59:41 10° NNE 01:04:47 71° ESE 01:09:51 10° S visible
28 Jan 3.7 12:19:00 10° S 12:23:59 57° W 12:29:02 10° NNW visible
29 Jan 4.8 00:23:10 10° NNE 00:27:50 35° E 00:32:29 10° SSE visible
29 Jan 3.0 11:42:08 10° SSE 11:47:11 73° ENE 11:52:17 10° N visible
29 Jan 5.8 13:23:20 10° SW 13:26:47 18° W 13:30:13 10° NW visible
29 Jan 5.9 23:47:13 10° NE 23:50:42 18° E 23:54:09 10° SE visible
30 Jan 4.7 12:45:00 10° SSW 12:49:37 35° W 12:54:18 10° NNW visible
31 Jan 3.8 00:48:26 10° NNE 00:53:28 58° E 00:58:28 10° S visible
31 Jan 3.4 12:07:37 10° S 12:12:40 71° WSW 12:17:46 10° NNW visible
31 Jan 6.4 13:51:32 10° W 13:52:39 11° W 13:53:46 10° WNW visible
01 Feb 5.2 00:12:02 10° NNE 00:16:27 29° E 00:20:52 10° SSE visible
01 Feb 5.6 13:11:27 10° SW 13:15:21 22° W 13:19:17 10° NW visible
01 Feb 6.2 23:36:25 10° NE 23:39:15 15° E 23:42:04 10° ESE visible
02 Feb 4.3 12:33:26 10° S 12:38:16 43° W 12:43:07 10° NNW visible
03 Feb 4.2 00:37:12 10° NNE 00:42:08 47° E 00:47:01 10° S visible
03 Feb 3.1 11:56:17 10° SSE 12:01:22 86° WSW 12:06:30 10° NNW visible
03 Feb 6.2 13:38:43 10° WSW 13:41:10 13° W 13:43:39 10° NW visible
04 Feb 5.5 00:00:58 10° NE 00:05:04 24° E 00:09:09 10° SE visible
04 Feb 5.3 12:59:40 10° SSW 13:03:56 27° W 13:08:14 10° NW visible
04 Feb 6.4 23:25:56 10° ENE 23:27:47 12° E 23:29:38 10° ESE visible
05 Feb 3.3 01:02:34 10° NNE 01:07:42 77° ESE 01:12:46 10° S visible
05 Feb 3.9 12:21:57 10° S 12:26:54 53° W 12:31:54 10° NNW visible
